Location: Newark
(25.4800°N, 85.7200°E)
Time: 13:56:55
(UTC+00:00)

Vanguard 1 Rocket - Pass Details

Date: 19 August 2019
Orbit: 651 x 4225 km, 34.3° (Epoch: 20 September)

Event Time Altitude Azimuth Distance (km) Brightness Sun altitude
Rises 04:14:02 0° 287° (WNW) 5,058 10.9 57.6°
Reaches altitude 10° 04:16:55 10° 281° (W) 4,432 10.7 58.2°
Maximum altitude 04:29:24 47° 212° (SSW) 3,647 11.0 60.9°
Drops below altitude 10° 04:50:57 10° 147° (SSE) 7,262 12.5 65.4°
Sets 04:57:34 0° 142° (SE) 8,444 12.6 66.7°
